Terug naar catalogus

ONDOSAT-OWL-10

ActiefAmateurradioVLEO
NORAD 62404·PAYLOAD·🇲🇳 Mongolia
Deze satellietnaam is nog niet bevestigd door officiële bronnen.

Gelanceerd Dec 21, 2024 vanaf Vandenberg Space Force Base

Loading…

Volgende Passages (komende 24 uur)

TLE

VerouderendSource: Space-Track

Epoch: Sep 13, 2026, 22:30 UTC

1 62404U 24247AD  26256.93773080  .00058422  00000-0  70575-3 0  9991
2 62404  44.9911 105.2339 0007103 207.5401 152.5118 15.59931359 97288

Volg ONDOSAT-OWL-10 in realtime met AllMySat

Download on the App Store